THOR ABLESTAR DEB, 461

Orbit data source: Space-Track

THOR ABLESTAR DEB, 461 is space debris in LEO originally from a launch on Thu, 29 Jun 1961 UTC launched from the Air Force Eastern Test Range (AFETR). Debris objects in space refer to the collection of defunct objects orbiting the Earth. Examples of debris include non-operational satellites, rocket bodies, and fragments generated from explosions, collisions, or faulty payload assembly.

Loading next visibility...
THOR ABLESTAR DEB details
Identifier
461, 1961-015EX
Orbit
LEO
Last TLE update9 hours ago
Origin
Flag of USUSAF SSD (US)
ManufacturerUnknown
MissionSpacecraft
Bus & MotorUnknown
MassUnknown
Launch date (UTC)
1961-06-29 (64 years ago)
Launch vehicleUnknown
Launch site
Air Force Eastern Test Range (AFETR)
Object type
Payload
Rocket body
Debris
Shape & HBRUnknown
Radar Cross SectionMedium (>0.1 m² and <1 m²)

Expand to show TLE details & history

TLE from 9 hours ago
0 THOR ABLESTAR DEB
1 00461U 61015EX  25015.52579076  .00020312  00000-0  23831-2 0  9995
2 00461  67.5019 105.9276 0023832 118.9697 241.3830 14.84771256308355
Epoch: 2025-01-15T12:37Z
Definitive object data (Epoch: 2025-01-15T12:37:08.321Z)
Latitude0.00005°
Longitude161.42608°
Altitude624.541 km
Speed7.542 km/s
True Right ascension07h 03m 42s
True Declination0° 00' 00"
Sunlit
Object was in full shadow at TLE epoch
Visualization TLE readout
Latitude-35.11028°
Longitude-2.78112°
Altitude629.516 km
Speed7.541 km/s
Apparent Right ascension16h 12m 46s
Apparent Declination-68° 21' 06"
Sunlit
Object is in daylight
Visualization observer readout
Local Sidereal Time22:22:39
Azimuth207.678° SW
Elevation-37.489°
Doppler factor1
Orbital elements
Apogee altitude629.203 km
Perigee altitude595.882 km
Semi-major axis6,990.68 km
Eccentricity0.0023832
Inclination67.5019°
RAAN105.9276°
Arg. of periapsis118.9697°
True anomaly241.14361°
Mean anomaly241.383°
Eccentric anomaly241.26327°
Mean motion3.71333 °/min
BSTAR0.0023831
Orbital period96.95 mins
Loading maneuver chart data...

THOR ABLESTAR DEB Visibility forecast

Observer location: undefined°, undefined

Span
Click to sort rows by Start time (UTC) header in descending order
Start Az.
Max El. time (UTC)
Max El. Az.
Max El.
End time (UTC)
End Az.
6 mins2025-01-16 06:31:46.842Z155.892° SSE2025-01-16 06:34:46.842Z108.922° ESE20.82°2025-01-16 06:37:46.842Z61.077° ENE
6 mins2025-01-16 08:11:46.842Z252.768° W2025-01-16 08:13:46.842Z294.817° NW29.141°2025-01-16 08:17:46.842Z8.674° NNE
7 mins2025-01-16 16:39:46.842Z333.919° NNW2025-01-16 16:42:46.842Z117.698° SE44.746°2025-01-16 16:46:46.842Z151.599° SSE
|